Location: Arboucave
(43.6130°N, 0.4343°W)
Time: 12:55:12
(UTC+00:00)

ISS - Pass Details

Date: 17 November 2025
Orbit: 416 x 421 km, 51.6° (Epoch: 06 December)

Event Time Altitude Azimuth Distance (km) Brightness Sun altitude
Rises 17:06:31 0° 236° (SW) 2,360 2.0 -6.1°
Reaches altitude 10° 17:08:37 10° 236° (SW) 1,497 0.6 -6.5°
Maximum altitude 17:11:59 88° 145° (SE) 424 -3.8 -7.1°
Drops below altitude 10° 17:15:21 10° 58° (ENE) 1,500 -1.6 -7.6°
Enters shadow 17:15:25 10° 58° (ENE) 1,525 -1.6 -7.6°
